Weather History for KIZG - January, 2014

Change the Weather History Date:

Saturday, January 4, 2014

  Actual Average Record
Temperature  
Mean Temperature -4 °F -  
Max Temperature 17 °F 29 °F 50 °F (1998)
Min Temperature -26 °F 10 °F -26 °F (2014)
Degree Days  
Heating Degree Days 70    
Moisture  
Dew Point -14 °F    
Average Humidity 65    
Maximum Humidity 83    
Minimum Humidity 41    
Precipitation  
Precipitation 0.01 in - - ()
Sea Level Pressure  
Sea Level Pressure 30.33 in    
Wind  
Wind Speed 2 mph (West)    
Max Wind Speed 9 mph    
Max Gust Speed -    
Visibility 10 miles    
Events Snow    
Averages and records for this station are not official NWS values.
T = Trace of Precipitation, MM = Missing Value Source: NWS Daily Summary

Daily Weather History Graph

Daily Weather History Graph

Search for Another Location

Airport or City:

Trip Planner

Search our weather history database for the weather conditions in past years. The results will help you decide how hot, cold, wet, or windy it might be!

Date:

Astronomy

Jan. 04, 2014 Rise Set
Actual Time 7:18 AM EST 4:19 PM EST
Civil Twilight 6:45 AM EST 4:52 PM EST
Nautical Twilight 6:09 AM EST 5:28 PM EST
Astronomical Twilight 5:34 AM EST 6:03 PM EST
Moon 9:13 AM EST (1/4) 8:44 PM EST (1/4)
Length of Visible Light 10h 06m
Length of Day
9h 00m
Waxing Crescent, 15% of the Moon is Illuminated
Jan 4
Waxing Crescent
Jan 7
First Quarter
Jan 15
Full
Jan 24
Last Quarter
Jan 30
New

Hourly Weather History & Observations

Time (EST) Temp. Windchill Dew Point Humidity Pressure Visibility Wind Dir Wind Speed Gust Speed Precip Events Conditions
12:54 AM -25.1 °F -36.5 °F -33.0 °F 66% 30.38 in 10.0 mi West 3.5 mph - N/A   Clear
1:54 AM -26.0 °F - -32.1 °F 73% 30.40 in 10.0 mi Calm Calm - N/A   Clear
2:54 AM -24.0 °F - -31.0 °F 70% 30.41 in 10.0 mi Calm Calm - N/A   Clear
3:54 AM -26.0 °F - -33.0 °F 69% 30.39 in 10.0 mi Calm Calm - N/A   Clear
4:54 AM -26.0 °F - -33.0 °F 69% 30.41 in 10.0 mi Calm Calm - N/A   Clear
5:54 AM -24.0 °F - -31.0 °F 70% 30.42 in 10.0 mi Calm Calm - N/A   Clear
6:54 AM -23.1 °F - -27.9 °F 78% 30.44 in 10.0 mi Calm Calm - N/A   Scattered Clouds
7:54 AM -20.9 °F - -26.0 °F 77% 30.46 in 10.0 mi Calm Calm - N/A   Clear
8:54 AM -15.0 °F - -20.0 °F 78% 30.46 in 10.0 mi Calm Calm - N/A   Clear
9:54 AM -9.0 °F - -16.1 °F 71% 30.44 in 10.0 mi Calm Calm - N/A   Partly Cloudy
10:54 AM 1.0 °F - -9.9 °F 60% 30.40 in 9.0 mi Calm Calm - 0.00 in Snow Light Snow
11:54 AM 5.0 °F - -11.0 °F 48% 30.34 in 10.0 mi Calm Calm - 0.01 in   Clear
12:54 PM 12.0 °F - -6.0 °F 44% 30.29 in 10.0 mi Calm Calm - N/A   Clear
1:54 PM 15.1 °F 9.4 °F -5.1 °F 41% 30.28 in 10.0 mi North 3.5 mph - N/A   Clear
2:54 PM 17.1 °F 11.7 °F -2.0 °F 43% 30.27 in 10.0 mi Variable 3.5 mph - N/A   Clear
3:54 PM 12.9 °F 6.9 °F -2.0 °F 51% 30.27 in 10.0 mi NNW 3.5 mph - N/A   Clear
4:54 PM 6.1 °F -0.9 °F -2.0 °F 69% 30.27 in 10.0 mi WNW 3.5 mph - N/A   Clear
5:54 PM 9.0 °F 0.6 °F -2.0 °F 61% 30.25 in 10.0 mi South 4.6 mph - N/A   Clear
6:54 PM 14.0 °F 2.0 °F -0.0 °F 54% 30.24 in 10.0 mi South 9.2 mph - N/A   Clear
7:54 PM 12.9 °F - -0.0 °F 56% 30.22 in 10.0 mi Calm Calm - N/A   Clear
8:54 PM 10.9 °F 2.9 °F -0.9 °F 59% 30.20 in 10.0 mi SSE 4.6 mph - N/A   Clear
9:54 PM 1.0 °F -6.7 °F -2.9 °F 83% 30.20 in 10.0 mi NW 3.5 mph - N/A   Clear
10:54 PM -0.0 °F - -4.0 °F 83% 30.19 in 10.0 mi Calm Calm - N/A   Clear
11:54 PM 1.0 °F -8.7 °F -4.0 °F 79% 30.20 in 10.0 mi WNW 4.6 mph - N/A   Partly Cloudy